Skip Page Navigation
NASA JPL Caltech
NASA Logo - Jet Propulsion Laboratory + View the NASA Portal
+ Center for Near-Earth Object Studies
JPL Home Earth Solar System Stars & Galaxies Technology
JPL Solar System Dynamics
BODIES ORBITS EPHEMERIDES TOOLS PHYSICAL DATA DISCOVERY FAQ SITE MAP
JPL Small-Body Database Browser
Search: [ help ]  
351884 (2006 ST151)
Classification: Main-belt Asteroid          SPK-ID: 2351884
Ephemeris | Orbit Diagram | Orbital Elements | Mission Design | Physical Parameters | Discovery Circumstances ]

[ show orbit diagram ]
Orbital Elements at Epoch 2459396.5 (2021-Jul-01.0) TDB
Reference: JPL 7 (heliocentric ecliptic J2000)
 Element Value Uncertainty (1-sigma)   Units 
e .09258913167632994 8.8985e-08  
a 2.971497831686088 4.5854e-08 au
q 2.696369427672176 2.6697e-07 au
i .9621409938559581 9.7255e-06 deg
node 316.865410946829 0.00043574 deg
peri 83.29499108845424 0.00044263 deg
M 301.1818935176013 7.5652e-05 deg
tp 2459702.182158875687
(2022-May-02.68215888)
0.00039728 TDB
period 1870.947294574647
5.12
4.3307e-05
1.186e-07
d
yr
n .192415895970947 4.4538e-09 deg/d
Q 3.2466262357 5.01e-08 au
  Orbit Determination Parameters
   # obs. used (total)      104  
   data-arc span      6348 days (17.38 yr)  
   first obs. used      2001-11-18  
   last obs. used      2019-04-06  
   planetary ephem.      DE441  
   SB-pert. ephem.      SB441-N16  
   condition code      0  
   norm. resid. RMS      .51233  
   source      ORB  
   producer      Otto Matic  
   solution date      2021-Apr-14 08:59:53  

Additional Information
 Earth MOID = 1.70386 au 
 Jupiter MOID = 2.11607 au 
 T_jup = 3.256 
[ show covariance matrix ]

Ephemeris | Orbit Diagram | Orbital Elements | Mission Design | Physical Parameters | Discovery Circumstances ]

Physical Parameter Table
Parameter Symbol Value Units Sigma Reference Notes
absolute magnitude H 16.7   n/a MPO434220  

351884 (2006 ST151)          Discovered 2006-Sep-19 by Spacewatch at Kitt Peak
Reference: 20130127/Numbers.arcLast Updated: 2013-01-31
Ephemeris | Orbit Diagram | Orbital Elements | Mission Design | Physical Parameters | Discovery Circumstances ]
ABOUT SSD CREDITS/AWARDS PRIVACY/COPYRIGHT GLOSSARY LINKS
FirstGov 2021-Aug-05 06:13 UT
(server date/time)  
NASA Home Page
Site Manager:   Ryan S. Park
Webmaster  Alan B. Chamberlin